Regional Weather Roundup
Issued by NWS Midland/Odessa, TX

Skip options and go directly to product.
Home | Oldest Version | Previous Version | Current Version | All | Text Only | Save Text | Print | Product List | Glossary Off

Skip product version selection by date and time.   

614
ASUS44 KMAF 060710
RWRMAF
MIDLAND AREA WEATHER ROUNDUP
NATIONAL WEATHER SERVICE MIDLAND TX
200 AM CDT FRI MAY 06 2016

...IN SOUTHWEST TEXAS AND SOUTHEAST NEW MEXICO...

CITY           SKY/WX    TMP DP  RH WIND       PRES   REMARKS
ALPINE         CLEAR     67  32  27 W5        30.15S
ANDREWS        FAIR      64  37  37 SE9       30.07F
ARTESIA        CLOUDY    63  27  25 S10       30.03F
BIG SPRING     CLEAR     63  40  44 SE8       30.09S
CARLSBAD       CLEAR     65  24  21 S9        30.02F
DRYDEN           N/A     65  36  34 E7        30.03S
FORT STOCKTON  CLEAR     69  34  27 SE15      30.02F
GUAD PASS      NOT AVBL
HOBBS          CLOUDY    57  32  38 SE7       30.09F
MARFA          CLEAR     50  25  37 W7        30.13S
MIDLAND AIRPK  CLEAR     68  39  34 SE10      30.07S
MIDLAND INTL   CLEAR     65  40  39 SE9       30.06F
ODESSA         CLEAR     67  38  34 SE9       30.07S
PECOS          CLEAR     62  26  25 E8        30.00F
PRESIDIO       FAIR      75  33  21 NE12G23   29.98F
SEMINOLE       CLEAR     56  33  43 S6        30.09F
SNYDER           N/A     63  46  55 S5        30.06F
WINK           CLEAR     63  31  30 SE9       30.02S
$$
...OTHER STATIONS IN TEXAS...

CITY           SKY/WX    TMP DP  RH WIND       PRES   REMARKS
ABILENE        CLEAR     61  55  81 SE9       30.06F
AMARILLO       CLEAR     56  46  69 SE13      30.08S
AUSTIN         PTCLDY    58  57  97 CALM      30.03F
BROWNSVILLE    CLEAR     67  65  93 S3        30.01F
CORPUS CHRISTI PTCLDY    65  58  78 NW6       30.00F
DALLAS FTW     CLEAR     66  48  52 CALM      30.03F
DEL RIO        MOCLDY    66  49  54 SE3       30.01S
EL PASO        PTCLDY    75  26  16 SE7       29.94R
HOUSTON INT    PTCLDY    61  53  75 N3        30.02F
LUBBOCK        PTCLDY    64  39  39 S15       30.07R
SAN ANGELO     CLEAR     61  48  62 S8        30.05F
SAN ANTONIO    CLOUDY    66  56  70 NW5       30.04S
WACO           CLOUDY    57  53  86 CALM      30.04F
WICHITA FALLS  NOT AVBL
$$
...OTHER LOCATIONS IN NEW MEXICO...

CITY           SKY/WX    TMP DP  RH WIND       PRES   REMARKS
ALAMAGORDO     CLOUDY    77  27  15 SE16G26   29.95F
ALBUQUERQUE    CLOUDY    67  23  19 SE13      30.00S
CANNON AFB     NOT AVBL
CLOVIS         CLEAR     57  28  33 S10       30.11R
HOLLOMAN AFB   CLEAR     75  25  15 S16       29.93S
ROSWELL        PTCLDY    58  25  28 SW3       30.03F
RUIDOSO          N/A     55  19  24 SE8       30.20F
SANTA FE       CLOUDY    59  20  22 SE16      30.10F
TRUTH OR CONSE PTCLDY    69  39  33 S9        29.97F
TUCUMCARI      CLOUDY    58  29  33 S9        30.04S
$$

USA.gov is the U.S. government's official web portal to all federal, state and local government web resources and services.